This is the latest recevied weather packets stored in our database for station/object CE4JVU-10. If no packets are shown the sender has not sent any weather packets the latest 10 day(s).
| Time | Temp. | Humidity | Pressure | Rain* | Wind** | Luminosity | Snow |
|---|---|---|---|---|---|---|---|
| 1788008936 | 17.22° C | 63% | 983.2 hPa | - | - | - | - |
| 1788008038 | 17.78° C | 62% | 983.3 hPa | - | - | - | - |
| 1788007138 | 17.22° C | 67% | 983.4 hPa | - | - | - | - |
| 1788006238 | 16.67° C | 65% | 983.3 hPa | - | - | - | - |
| 1788005338 | 16.11° C | 67% | 983.1 hPa | - | - | - | - |
| 1788004438 | 15.56° C | 68% | 983.1 hPa | - | - | - | - |
| 1788003538 | 15° C | 68% | 983 hPa | - | - | - | - |
| 1788002638 | 15° C | 64% | 982.7 hPa | - | - | - | - |
| 1788001738 | 15° C | 64% | 982.6 hPa | - | - | - | - |
| 1788000837 | 15° C | 65% | 982.3 hPa | - | - | - | - |
| 1787999937 | 15° C | 65% | 982.4 hPa | - | - | - | - |
| 1787999037 | 15° C | 65% | 982.5 hPa | - | - | - | - |
| 1787998137 | 15° C | 65% | 982.3 hPa | - | - | - | - |
| 1787997237 | 15.56° C | 64% | 982.2 hPa | - | - | - | - |
| 1787996337 | 15.56° C | 64% | 982.2 hPa | - | - | - | - |
| 1787995437 | 15.56° C | 65% | 982.5 hPa | - | - | - | - |
| 1787994537 | 15.56° C | 64% | 982.3 hPa | - | - | - | - |
| 1787993637 | 15.56° C | 64% | 982.2 hPa | - | - | - | - |
| 1787992737 | 15° C | 64% | 982 hPa | - | - | - | - |
| 1787991836 | 15.56° C | 64% | 982 hPa | - | - | - | - |
| 1787990936 | 15.56° C | 64% | 981.9 hPa | - | - | - | - |
| 1787990036 | 15.56° C | 63% | 982.1 hPa | - | - | - | - |
| 1787989136 | 15.56° C | 62% | 982.2 hPa | - | - | - | - |
| 1787988236 | 15.56° C | 62% | 982.2 hPa | - | - | - | - |
| 1787987335 | 16.11° C | 62% | 982.3 hPa | - | - | - | - |
* Rain since midnight (hover to see other rain measurements)
** Current wind speed in m/s (hover to see current wind gust speed)